Location: Kolin
(50.0330°N, 15.2000°E)
Time: 16:32:19
(UTC+02:00)

Gurwin Techsat 1B - Pass Details

Date: 13 August 2022
Orbit: 811 x 813 km, 98.9° (Epoch: 27 September)

Event Time Altitude Azimuth Distance (km) Brightness Sun altitude
Rises 02:20:24 0° 27° (NNE) 3,352 13.3 -23.1°
Reaches altitude 10° 02:23:27 10° 44° (NE) 2,414 12.0 -22.9°
Maximum altitude 02:27:14 19° 90° (E) 1,834 10.7 -22.7°
Enters shadow 02:30:36 11° 132° (SE) 2,300 10.8 -22.5°
